Date,TemperatureHighF,TemperatureAvgF,TemperatureLowF,DewpointHighF,DewpointAvgF,DewpointLowF,HumidityHigh,HumidityAvg,HumidityLow,PressureMaxIn,PressureMinIn,WindSpeedMaxMPH,WindSpeedAvgMPH,GustSpeedMaxMPH,PrecipitationSumIn
2013-1-1,48.4,41.0,30.4,33.6,27.1,20.5,96,61,36,30.32,30.24,18,8,19,0.00
2013-1-2,51.6,43.5,33.6,29.1,24.1,19.0,76,47,36,30.28,30.17,18,6,20,0.00
2013-1-3,52.2,41.9,33.1,36.0,29.1,23.5,89,61,44,30.30,30.18,10,3,10,0.00
2013-1-4,53.1,43.3,35.1,36.0,31.1,27.5,86,63,43,30.32,30.22,11,3,11,0.00
2013-1-5,44.1,39.5,32.4,41.9,37.1,28.8,99,91,77,30.28,30.10,18,2,18,0.49
2013-1-6,45.9,41.1,37.0,42.4,39.2,35.8,99,93,83,30.21,30.10,18,4,20,0.04
2013-1-7,55.2,47.1,36.5,48.4,42.3,34.3,98,84,72,30.28,30.19,11,2,12,0.00
2013-1-8,60.6,50.0,40.8,50.5,44.5,39.6,99,83,52,30.25,30.14,14,3,14,0.00
2013-1-9,45.3,40.7,34.3,45.1,40.0,30.9,100,97,87,30.17,29.98,23,3,23,0.06
2013-1-10,44.8,36.4,28.8,34.5,29.6,23.9,96,77,55,30.21,30.07,13,2,13,0.00
2013-1-11,44.4,35.8,27.3,35.6,29.6,23.4,93,78,62,30.27,30.16,13,2,13,0.00
2013-1-12,42.8,36.1,27.1,29.8,24.5,17.4,91,64,46,30.27,30.17,17,4,17,0.00
2013-1-13,44.2,37.0,26.2,17.6,13.3,8.6,65,38,26,30.29,30.21,24,6,30,0.00
2013-1-14,48.6,40.6,34.5,22.8,14.0,7.9,55,34,26,30.42,30.27,32,8,32,0.00
2013-1-15,52.2,40.5,30.7,34.3,25.8,17.1,89,57,35,30.51,30.42,16,3,19,0.00
2013-1-16,57.9,51.1,39.9,37.8,27.2,22.6,72,40,28,30.45,30.27,26,7,26,0.00
2013-1-17,62.2,55.5,49.5,28.8,20.7,13.3,37,26,20,30.27,30.18,27,10,27,0.00
2013-1-18,61.0,53.8,48.7,29.7,22.3,16.9,34,29,24,30.25,30.16,20,8,20,0.00
2013-1-19,60.1,52.7,43.3,29.7,21.3,15.4,51,30,24,30.28,30.18,22,7,22,0.00
2013-1-20,60.8,50.7,37.0,30.4,22.7,15.4,64,36,22,30.25,30.16,16,5,16,0.00
2013-1-21,61.9,53.2,36.9,34.2,24.6,18.1,65,34,23,30.21,30.13,18,6,19,0.00
2013-1-22,58.8,50.6,43.7,38.7,29.3,20.7,71,45,30,30.14,30.03,13,4,13,0.00
2013-1-23,54.1,47.2,44.2,47.7,41.2,33.1,99,81,48,30.12,29.99,11,2,12,0.51
2013-1-24,54.7,50.3,46.8,51.4,48.3,46.6,99,93,88,30.21,30.09,14,5,14,0.02
2013-1-25,57.7,52.1,46.9,52.5,49.4,45.5,97,91,81,30.21,30.06,9,2,10,0.00
2013-1-26,50.5,45.2,37.6,48.6,40.9,34.0,99,85,64,30.06,29.96,17,3,17,0.01
2013-1-27,48.6,39.3,29.7,34.3,31.3,27.1,97,74,51,30.20,30.04,12,2,12,0.00
2013-1-28,51.3,41.3,30.9,39.6,34.4,28.8,94,77,61,30.31,30.17,11,2,11,0.00
2013-1-29,58.8,47.1,32.7,41.4,35.2,30.6,94,66,41,30.39,30.30,19,4,19,0.00
2013-1-30,64.8,54.5,41.2,46.2,39.0,30.7,92,58,28,30.35,30.26,22,6,22,0.00
2013-1-31,62.1,51.9,41.4,45.5,38.4,32.0,95,62,43,30.30,30.20,16,4,16,0.00